Rechercher aéroport 
image banner adimage banner ad
image banner ad

DAAT - Tamenghasset/Aguenar-Hadj Bey Akhamok

Situé à Tamanrasset, Algeria

ICAO - DAAT, IATA - TMR

Données fournies par Airmate  

Information générale

Coordonnées: N22°48'40" E5°27'3"
Élévation : 4517 feet MSL.
 
Voir autres Aéroports à Tamanghasset Province

Données opérationnelles

Accessible au public
Heure actuelle UTC:
Heure actuelle locale:
Météo
METAR: DAAT 301030Z 11010KT 080V140 CAVOK 26/M03 Q1025
TAF: TAF DAAT 300500Z 3006/3106 12012KT CAVOK PROB30 TEMPO 3008/3010 12015G25KT BECMG 3018/3021 04008KT
Voir NOTAMs / SUP AIP / TFR affectant cet aéroport [VIEW]
Fréquences de communication: [VIEW]

Pistes:

Identifiant RWYQFULongueur (ft)Largeur (ft)SurfaceLDA (ft)
0222°11811148ASP
20202°11811148
0881°10335148
26261°10335148

Coordonnées de l'aéroport

Adresse: Tamanrasset Algeria

Vue satellite de DAAT